Change the Weather History Date:

Thursday, November 4, 2010

  Actual Average Record
Temperature  
Mean Temperature 60 °F -  
Max Temperature 72 °F 63 °F 75 °F (1998)
Min Temperature 47 °F 45 °F 41 °F (2000)
Degree Days  
Heating Degree Days 6    
Growing Degree Days 10 (Base 50)    
Moisture  
Dew Point 51 °F    
Average Humidity 76    
Maximum Humidity 94    
Minimum Humidity 44    
Precipitation  
Precipitation 0.00 in 0.06 in - ()
Sea Level Pressure  
Sea Level Pressure 30.35 in    
Wind  
Wind Speed 3 mph ()    
Max Wind Speed 16 mph    
Max Gust Speed 17 mph    
Visibility 6.6 miles    
Events      
Averages and records for this station are not official NWS values.
T = Trace of Precipitation, MM = Missing Value Source: Averaged Metar Reports

Daily Weather History Graph

Daily Weather History Graph

Search for Another Location

Airport or City:

Trip Planner

Search our weather history database for the weather conditions in past years. The results will help you decide how hot, cold, wet, or windy it might be!

Date:

Astronomy

Nov. 04, 2010 Rise Set
Actual Time 7:20 AM CET 5:44 PM CET
Civil Twilight 6:52 AM CET 6:12 PM CET
Nautical Twilight 6:20 AM CET 6:44 PM CET
Astronomical Twilight 5:48 AM CET 7:15 PM CET
Moon 5:13 AM CET (11/4) 4:19 PM CET (11/4)
Length of Visible Light 11h 19m
Length of Day
10h 23m
Waning Crescent, 4% of the Moon is Illuminated
Nov 4
Waning Crescent
Nov 6
New
Nov 13
First Quarter
Nov 21
Full
Nov 28
Last Quarter

Hourly Weather History & Observations

Time (CET) Temp. Dew Point Humidity Pressure Visibility Wind Dir Wind Speed Gust Speed Precip Events Conditions
12:00 AM 51.8 °F 48.2 °F 88% 30.30 in 6.2 mi Variable 1.2 mph - N/A   Partly Cloudy
12:30 AM 51.8 °F 46.4 °F 82% 30.30 in 6.2 mi Variable 1.2 mph - N/A   Partly Cloudy
1:00 AM 50 °F 47 °F 86% 30.32 in 9 mi Calm Calm - -   Scattered Clouds
1:00 AM 50.0 °F 46.4 °F 87% 30.33 in 6.2 mi Calm Calm - N/A   Partly Cloudy
1:30 AM 51.8 °F 48.2 °F 88% 30.33 in 6.2 mi Calm Calm - N/A   Partly Cloudy
2:00 AM 50.0 °F 46.4 °F 87% 30.33 in 6.2 mi Calm Calm - N/A   Partly Cloudy
2:30 AM 50.0 °F 46.4 °F 87% 30.33 in 6.2 mi NE 3.5 mph - N/A   Partly Cloudy
3:00 AM 48.2 °F 46.4 °F 93% 30.33 in 6.2 mi Calm Calm - N/A   Partly Cloudy
3:30 AM 48.2 °F 46.4 °F 93% 30.33 in 6.2 mi Calm Calm - N/A   Partly Cloudy
4:00 AM 48.2 °F 46.4 °F 93% 30.33 in 6.2 mi Calm Calm - N/A   Partly Cloudy
4:30 AM 50.0 °F 46.4 °F 87% 30.33 in 6.2 mi Calm Calm - N/A   Partly Cloudy
5:00 AM 48.2 °F 46.4 °F 93% 30.33 in 6.2 mi Calm Calm - N/A   Partly Cloudy
5:30 AM 48.2 °F 44.6 °F 87% 30.33 in 6.2 mi Calm Calm - N/A   Partly Cloudy
6:00 AM 48.2 °F 44.6 °F 87% 30.33 in 6.2 mi Calm Calm - N/A   Partly Cloudy
6:30 AM 48.2 °F 44.6 °F 87% 30.33 in 6.2 mi Variable 1.2 mph - N/A   Partly Cloudy
7:00 AM 48 °F 45 °F 86% 30.35 in 7 mi East 1.2 mph - -   Scattered Clouds
7:00 AM 48.2 °F 46.4 °F 93% 30.33 in 6.2 mi NE 1.2 mph - N/A   Partly Cloudy
7:30 AM 48.2 °F 46.4 °F 93% 30.33 in 6.2 mi Variable 1.2 mph - N/A   Partly Cloudy
8:00 AM 48.2 °F 46.4 °F 93% 30.36 in 6.2 mi Calm Calm - N/A   Partly Cloudy
8:30 AM 51.8 °F 50.0 °F 94% 30.36 in 6.2 mi Calm Calm - N/A   Partly Cloudy
8:51 AM 55.4 °F 51.8 °F 88% 30.36 in 6.2 mi Calm Calm - N/A   Partly Cloudy
9:00 AM 55.4 °F 51.8 °F 88% 30.36 in 6.2 mi Calm Calm - N/A   Partly Cloudy
9:17 AM 59.0 °F 53.6 °F 82% 30.39 in 6.2 mi Calm Calm - N/A   Partly Cloudy
9:30 AM 60.8 °F 55.4 °F 82% 30.39 in 6.2 mi Calm Calm - N/A   Partly Cloudy
9:47 AM 64.4 °F 55.4 °F 73% 30.39 in 6.2 mi Calm Calm - N/A   Partly Cloudy
10:00 AM 66.2 °F 55.4 °F 68% 30.39 in 6.2 mi Calm Calm - N/A   Partly Cloudy
10:30 AM 66.2 °F 55.4 °F 68% 30.39 in 6.2 mi Calm Calm - N/A   Partly Cloudy
11:00 AM 69.8 °F 55.4 °F 60% 30.39 in 6.2 mi NE 10.4 mph - N/A   Partly Cloudy
11:30 AM 69.8 °F 57.2 °F 64% 30.39 in 6.2 mi ENE 12.7 mph - N/A   Partly Cloudy
12:00 PM 69.8 °F 55.4 °F 60% 30.39 in 6.2 mi ENE 11.5 mph - N/A   Partly Cloudy
12:30 PM 71.6 °F 55.4 °F 57% 30.36 in 6.2 mi ENE 16.1 mph - N/A   Partly Cloudy
1:00 PM 71 °F 54 °F 44% 30.37 in 19 mi ENE 13.8 mph - -   Scattered Clouds
1:00 PM 71.6 °F 53.6 °F 53% 30.36 in 6.2 mi NE 16.1 mph - N/A   Partly Cloudy
1:30 PM 71.6 °F 55.4 °F 57% 30.36 in 6.2 mi NE 13.8 mph - N/A   Partly Cloudy
2:00 PM 71.6 °F 55.4 °F 57% 30.33 in 6.2 mi ENE 15.0 mph - N/A   Partly Cloudy
2:30 PM 71.6 °F 53.6 °F 53% 30.33 in 6.2 mi NE 15.0 mph - N/A   Partly Cloudy
3:00 PM 71.6 °F 53.6 °F 53% 30.33 in 6.2 mi NE 12.7 mph - N/A   Partly Cloudy
3:30 PM 69.8 °F 53.6 °F 56% 30.33 in 6.2 mi NE 12.7 mph - N/A   Partly Cloudy
4:00 PM 69.8 °F 51.8 °F 53% 30.33 in 6.2 mi NE 13.8 mph - N/A   Partly Cloudy
4:30 PM 69.8 °F 53.6 °F 56% 30.33 in 6.2 mi NE 12.7 mph - N/A   Partly Cloudy
5:00 PM 68.0 °F 53.6 °F 60% 30.33 in 6.2 mi NNE 10.4 mph - N/A   Partly Cloudy
5:30 PM 66.2 °F 53.6 °F 64% 30.33 in 6.2 mi NE 11.5 mph - N/A   Partly Cloudy
6:00 PM 64.4 °F 53.6 °F 68% 30.33 in 6.2 mi NE 10.4 mph - N/A   Partly Cloudy
6:30 PM 62.6 °F 53.6 °F 72% 30.33 in 6.2 mi NE 8.1 mph - N/A   Partly Cloudy
7:00 PM 62 °F 54 °F 68% 30.35 in 11 mi ENE 8.1 mph - -   Scattered Clouds
7:00 PM 62.6 °F 53.6 °F 72% 30.33 in 6.2 mi NE 6.9 mph - N/A   Partly Cloudy
7:30 PM 62.6 °F 55.4 °F 77% 30.36 in 6.2 mi NE 8.1 mph - N/A   Partly Cloudy
8:00 PM 60.8 °F 55.4 °F 82% 30.36 in 6.2 mi NE 9.2 mph - N/A   Partly Cloudy
8:30 PM 62.6 °F 55.4 °F 77% 30.36 in 6.2 mi NNE 4.6 mph 17.3 mph N/A   Partly Cloudy
9:00 PM 60.8 °F 53.6 °F 77% 30.36 in 6.2 mi ENE 4.6 mph - N/A   Partly Cloudy
9:30 PM 59.0 °F 53.6 °F 82% 30.36 in 6.2 mi East 4.6 mph - N/A   Partly Cloudy
10:00 PM 60.8 °F 55.4 °F 82% 30.36 in 6.2 mi Variable 2.3 mph - N/A   Partly Cloudy
10:30 PM 59.0 °F 55.4 °F 88% 30.36 in 6.2 mi NE 8.1 mph - N/A   Partly Cloudy